timestamp,wind_dir_avg,wind_spd_max_dir,wind_spd_avg,wind_spd_gust,battery_voltage,lat,long
2019-11-11 00:04:01+00:00,201.0,193.0,5.56,6.53,12.65,47.59359,-54.27349
2019-11-11 00:14:01+00:00,197.0,195.0,6.41,7.74,12.65,47.59359,-54.27349
2019-11-11 00:24:01+00:00,198.0,198.0,6.4,6.94,12.65,47.59359,-54.27349
2019-11-11 00:34:01+00:00,192.0,200.0,6.05,6.79,12.65,47.59359,-54.27349
2019-11-11 00:44:01+00:00,194.0,196.0,6.13,6.77,12.65,47.59359,-54.27349
2019-11-11 00:54:01+00:00,198.0,194.0,6.48,7.59,12.65,47.59359,-54.27349
2019-11-11 01:04:01+00:00,196.0,193.0,7.09,8.35,12.65,47.59359,-54.27349
2019-11-11 01:14:01+00:00,198.0,196.0,7.81,8.72,12.57,47.59359,-54.27349
2019-11-11 01:24:01+00:00,199.0,207.0,7.93,8.73,12.57,47.59359,-54.27349
2019-11-11 01:34:01+00:00,196.0,195.0,7.94,8.93,12.57,47.59359,-54.27349
2019-11-11 01:44:01+00:00,204.0,208.0,7.14,7.95,12.57,47.59359,-54.27349
2019-11-11 01:54:01+00:00,205.0,202.0,8.01,8.69,12.57,47.59359,-54.27349
2019-11-11 02:04:01+00:00,204.0,206.0,7.82,8.61,12.57,47.59359,-54.27349
2019-11-11 02:14:01+00:00,203.0,203.0,7.25,8.51,12.57,47.59359,-54.27349
2019-11-11 02:24:01+00:00,199.0,197.0,7.5,7.99,12.57,47.59359,-54.27349
2019-11-11 02:34:01+00:00,201.0,197.0,8.04,8.67,12.57,47.59359,-54.27349
2019-11-11 02:44:01+00:00,195.0,196.0,7.84,8.53,12.57,47.59359,-54.27349
2019-11-11 02:54:01+00:00,204.0,203.0,7.4,8.9,12.57,47.59359,-54.27349
2019-11-11 03:04:01+00:00,207.0,208.0,8.92,10.41,12.57,47.59359,-54.27349
2019-11-11 03:14:01+00:00,224.0,229.0,8.63,11.12,12.57,47.59359,-54.27349
2019-11-11 03:24:01+00:00,230.0,223.0,10.18,11.32,12.57,47.59359,-54.27349
2019-11-11 03:34:01+00:00,220.0,222.0,10.54,11.74,12.57,47.59359,-54.27349
2019-11-11 03:44:01+00:00,225.0,224.0,9.51,10.58,12.57,47.59359,-54.27349
2019-11-11 03:54:01+00:00,228.0,227.0,10.79,11.8,12.57,47.59359,-54.27349
2019-11-11 04:04:01+00:00,221.0,222.0,10.67,12.54,12.57,47.59359,-54.27349
2019-11-11 04:14:01+00:00,227.0,219.0,10.37,11.49,12.57,47.59359,-54.27349
2019-11-11 04:24:01+00:00,223.0,221.0,10.83,12.52,12.57,47.59359,-54.27349
2019-11-11 04:34:01+00:00,222.0,226.0,11.43,12.97,12.57,47.59359,-54.27349
2019-11-11 04:44:01+00:00,221.0,217.0,10.49,12.27,12.57,47.59359,-54.27349
2019-11-11 04:54:01+00:00,226.0,227.0,12.27,13.14,12.57,47.59359,-54.27349
2019-11-11 05:04:01+00:00,223.0,221.0,11.46,13.19,12.57,47.59359,-54.27349
2019-11-11 05:14:01+00:00,223.0,220.0,12.2,13.93,12.57,47.59359,-54.27349
2019-11-11 05:24:01+00:00,222.0,226.0,12.18,13.41,12.57,47.59359,-54.27349
2019-11-11 05:34:01+00:00,222.0,220.0,11.08,12.23,12.57,47.59359,-54.27349
2019-11-11 05:44:01+00:00,215.0,218.0,11.07,12.31,12.57,47.59359,-54.27349
2019-11-11 05:54:01+00:00,214.0,207.0,10.91,12.07,12.57,47.59359,-54.27349
2019-11-11 06:04:01+00:00,214.0,215.0,10.49,11.87,12.57,47.59359,-54.27349
2019-11-11 06:14:01+00:00,217.0,216.0,10.14,11.77,12.57,47.59359,-54.27349
2019-11-11 06:24:01+00:00,215.0,217.0,10.81,12.15,12.57,47.59359,-54.27349
2019-11-11 06:34:01+00:00,217.0,217.0,11.82,13.64,12.57,47.59359,-54.27349
2019-11-11 06:44:01+00:00,218.0,218.0,13.39,14.84,12.57,47.59359,-54.27349
2019-11-11 06:54:01+00:00,218.0,220.0,13.38,14.86,12.57,47.59359,-54.27349
2019-11-11 07:04:01+00:00,218.0,217.0,12.17,13.43,12.57,47.59359,-54.27349
2019-11-11 07:14:01+00:00,220.0,217.0,11.82,13.34,12.49,47.59359,-54.27349
2019-11-11 07:24:01+00:00,227.0,230.0,11.0,12.52,12.49,47.59359,-54.27349
2019-11-11 07:34:01+00:00,218.0,219.0,13.44,15.36,12.49,47.59359,-54.27349
2019-11-11 07:44:01+00:00,221.0,224.0,13.2,14.24,12.49,47.59359,-54.27349
2019-11-11 07:54:01+00:00,220.0,226.0,12.26,14.19,12.49,47.59359,-54.27349
2019-11-11 08:04:01+00:00,222.0,224.0,12.75,13.96,12.49,47.59359,-54.27349
2019-11-11 08:14:01+00:00,226.0,220.0,12.4,13.96,12.49,47.59359,-54.27349
2019-11-11 08:24:01+00:00,222.0,217.0,11.68,13.99,12.49,47.59359,-54.27349
2019-11-11 08:34:01+00:00,220.0,218.0,13.39,14.44,12.49,47.59359,-54.27349
2019-11-11 08:44:01+00:00,225.0,227.0,11.78,14.18,12.49,47.59359,-54.27349
2019-11-11 08:54:01+00:00,227.0,222.0,12.56,14.4,12.49,47.59359,-54.27349
2019-11-11 09:04:01+00:00,216.0,224.0,11.67,13.43,12.49,47.59359,-54.27349
2019-11-11 09:14:01+00:00,219.0,215.0,11.46,13.18,12.49,47.59359,-54.27349
2019-11-11 09:24:01+00:00,223.0,227.0,12.0,13.78,12.49,47.59359,-54.27349
2019-11-11 09:34:01+00:00,220.0,219.0,11.52,13.16,12.49,47.59359,-54.27349
2019-11-11 09:44:01+00:00,218.0,218.0,13.1,14.53,12.49,47.59359,-54.27349
2019-11-11 09:54:01+00:00,222.0,225.0,13.72,16.25,12.49,47.59359,-54.27349
2019-11-11 10:04:01+00:00,218.0,216.0,12.66,14.67,12.49,47.59359,-54.27349
2019-11-11 10:14:01+00:00,214.0,211.0,14.0,16.87,12.49,47.59359,-54.27349
2019-11-11 10:24:01+00:00,215.0,215.0,12.65,14.44,12.49,47.59359,-54.27349
2019-11-11 10:34:01+00:00,215.0,218.0,11.54,12.82,12.49,47.59359,-54.27349
2019-11-11 10:44:01+00:00,219.0,221.0,14.0,15.61,12.49,47.59359,-54.27349
2019-11-11 10:54:01+00:00,213.0,217.0,13.63,15.8,12.49,47.59359,-54.27349
2019-11-11 11:04:01+00:00,217.0,216.0,14.15,15.59,12.49,47.59359,-54.27349
2019-11-11 11:14:01+00:00,221.0,219.0,13.95,15.81,12.65,47.59359,-54.27349
2019-11-11 11:24:01+00:00,220.0,219.0,15.07,18.03,12.65,47.59359,-54.27349
2019-11-11 11:34:01+00:00,224.0,229.0,14.11,16.8,12.65,47.59359,-54.27349
2019-11-11 11:44:01+00:00,221.0,222.0,15.03,17.47,12.65,47.59359,-54.27349
2019-11-11 11:54:01+00:00,221.0,220.0,15.8,18.12,12.65,47.59359,-54.27349
2019-11-11 12:04:01+00:00,225.0,226.0,16.64,19.05,12.65,47.59359,-54.27349
2019-11-11 12:14:01+00:00,221.0,223.0,16.31,18.57,12.73,47.59359,-54.27349
2019-11-11 12:24:01+00:00,221.0,223.0,16.55,19.53,12.73,47.59359,-54.27349
2019-11-11 12:34:01+00:00,219.0,219.0,16.23,18.24,12.73,47.59359,-54.27349
2019-11-11 12:44:01+00:00,219.0,222.0,14.88,18.68,12.73,47.59359,-54.27349
2019-11-11 12:54:01+00:00,219.0,221.0,15.11,18.79,12.73,47.59359,-54.27349
2019-11-11 13:04:01+00:00,217.0,221.0,16.24,19.03,12.73,47.59359,-54.27349
2019-11-11 14:14:01+00:00,216.0,,15.6,,,47.59359,-54.27349
2019-11-11 14:24:01+00:00,219.0,,14.84,,,47.59359,-54.27349
2019-11-11 14:34:01+00:00,218.0,,15.78,,,47.59359,-54.27349
2019-11-11 14:44:01+00:00,219.0,,15.25,,,47.59359,-54.27349
2019-11-11 14:54:01+00:00,225.0,,15.61,,,47.59359,-54.27349
2019-11-11 15:04:01+00:00,218.0,,16.62,,,47.59359,-54.27349
2019-11-11 15:14:01+00:00,216.0,215.0,14.32,16.94,13.21,47.59359,-54.27349
2019-11-11 15:24:01+00:00,221.0,221.0,14.25,17.19,13.21,47.59359,-54.27349
2019-11-11 15:34:01+00:00,224.0,221.0,15.39,17.02,13.21,47.59359,-54.27349
2019-11-11 15:44:01+00:00,219.0,220.0,14.72,17.95,13.21,47.59359,-54.27349
2019-11-11 15:54:01+00:00,225.0,228.0,15.33,17.3,13.21,47.59359,-54.27349
2019-11-11 16:04:01+00:00,226.0,225.0,14.85,16.58,13.21,47.59359,-54.27349
2019-11-11 16:14:01+00:00,226.0,229.0,15.92,18.71,13.37,47.59359,-54.27349
2019-11-11 16:24:01+00:00,229.0,228.0,15.13,17.66,13.37,47.59359,-54.27349
2019-11-11 16:34:01+00:00,228.0,231.0,14.93,17.33,13.37,47.59359,-54.27349
2019-11-11 16:44:01+00:00,231.0,238.0,13.51,15.68,13.37,47.59359,-54.27349
2019-11-11 16:54:01+00:00,232.0,230.0,13.68,16.99,13.37,47.59359,-54.27349
2019-11-11 17:04:01+00:00,225.0,227.0,14.07,16.76,13.37,47.59359,-54.27349
2019-11-11 17:14:01+00:00,226.0,228.0,14.16,16.48,13.68,47.59359,-54.27349
2019-11-11 17:24:01+00:00,230.0,233.0,14.09,17.29,13.68,47.59359,-54.27349
2019-11-11 17:34:01+00:00,228.0,216.0,15.04,18.5,13.68,47.59359,-54.27349
2019-11-11 17:44:01+00:00,228.0,222.0,14.29,18.59,13.68,47.59359,-54.27349
2019-11-11 17:54:01+00:00,225.0,227.0,14.11,17.19,13.68,47.59359,-54.27349
2019-11-11 18:04:01+00:00,232.0,232.0,16.12,18.69,13.68,47.59359,-54.27349
2019-11-11 18:14:01+00:00,229.0,227.0,13.05,16.85,13.68,47.59359,-54.27349
2019-11-11 18:24:01+00:00,228.0,231.0,14.5,16.81,13.68,47.59359,-54.27349
2019-11-11 18:34:01+00:00,228.0,228.0,14.37,15.77,13.68,47.59359,-54.27349
2019-11-11 18:44:01+00:00,229.0,232.0,13.05,14.9,13.68,47.59359,-54.27349
2019-11-11 18:54:01+00:00,232.0,230.0,11.16,12.82,13.68,47.59359,-54.27349
2019-11-11 19:04:01+00:00,236.0,237.0,10.72,12.52,13.68,47.59359,-54.27349
2019-11-11 19:14:01+00:00,246.0,252.0,11.04,13.38,13.13,47.59359,-54.27349
2019-11-11 19:24:01+00:00,247.0,243.0,11.51,13.92,13.13,47.59359,-54.27349
2019-11-11 19:34:01+00:00,267.0,259.0,12.7,14.85,13.13,47.59359,-54.27349
2019-11-11 19:44:01+00:00,267.0,260.0,13.15,14.62,13.13,47.59359,-54.27349
2019-11-11 19:54:01+00:00,272.0,270.0,10.27,12.29,13.13,47.59359,-54.27349
2019-11-11 20:04:01+00:00,273.0,272.0,9.72,10.61,13.13,47.59359,-54.27349
2019-11-11 20:14:01+00:00,295.0,298.0,8.7,10.74,12.73,47.59359,-54.27349
2019-11-11 20:24:01+00:00,282.0,281.0,9.91,11.11,12.73,47.59359,-54.27349
2019-11-11 20:34:01+00:00,277.0,277.0,9.62,10.65,12.73,47.59359,-54.27349
2019-11-11 20:44:01+00:00,288.0,290.0,7.88,9.49,12.73,47.59359,-54.27349
2019-11-11 20:54:01+00:00,289.0,294.0,7.5,8.88,12.73,47.59359,-54.27349
2019-11-11 21:04:01+00:00,278.0,284.0,6.91,8.15,12.73,47.59359,-54.27349
2019-11-11 21:14:01+00:00,279.0,282.0,8.46,9.23,12.65,47.59359,-54.27349
2019-11-11 21:24:01+00:00,269.0,270.0,7.08,7.95,12.65,47.59359,-54.27349
2019-11-11 21:34:01+00:00,269.0,255.0,9.09,10.63,12.65,47.59359,-54.27349
2019-11-11 21:44:01+00:00,266.0,269.0,8.62,9.49,12.65,47.59359,-54.27349
2019-11-11 21:54:01+00:00,263.0,270.0,6.97,7.84,12.65,47.59359,-54.27349
2019-11-11 22:04:01+00:00,262.0,267.0,6.46,7.38,12.65,47.59359,-54.27349
2019-11-11 22:14:01+00:00,256.0,257.0,7.71,8.33,12.65,47.59359,-54.27349
2019-11-11 22:24:01+00:00,258.0,259.0,7.14,7.88,12.65,47.59359,-54.27349
2019-11-11 22:34:01+00:00,267.0,269.0,8.24,9.11,12.65,47.59359,-54.27349
2019-11-11 22:44:01+00:00,263.0,267.0,7.18,7.95,12.65,47.59359,-54.27349
2019-11-11 22:54:01+00:00,258.0,257.0,7.47,8.27,12.65,47.59359,-54.27349
2019-11-11 23:04:01+00:00,256.0,260.0,6.85,7.43,12.65,47.59359,-54.27349
2019-11-11 23:14:01+00:00,246.0,245.0,7.83,8.54,12.57,47.59359,-54.27349
2019-11-11 23:24:01+00:00,250.0,253.0,7.87,8.91,12.57,47.59359,-54.27349
2019-11-11 23:34:01+00:00,251.0,253.0,8.94,9.81,12.57,47.59359,-54.27349
2019-11-11 23:44:01+00:00,250.0,253.0,8.16,9.13,12.57,47.59359,-54.27349
2019-11-11 23:54:01+00:00,250.0,252.0,7.71,9.14,12.57,47.59359,-54.27349
